Wind_Speed
17 16 15 16 17 15 13 12 11 11 11 11 10 10 11 10 9 8 8 7 9 11 12 13 14 14 16 16 16 17 18 19 20 20 21 21 21 21 22 23 23 22 22
18 17 17 16 17 18 17 14 13 13 13 12 11 10 10 11 10 9 9 9 9 12 14 15 15 16 17 17 17 18 18 18 19 20 21 22 22 22 23 24 25 26 26
19 18 19 20 19 18 18 16 15 14 15 14 11 10 10 10 11 10 11 11 13 14 14 16 16 17 17 18 19 17 16 16 18 17 19 20 21 22 24 25 27 28 29
18 18 19 20 20 18 17 16 16 16 15 14 12 11 10 11 12 12 12 12 13 15 17 18 18 19 19 18 18 18 18 19 19 20 21 23 24 25 26 28 28 29 31
20 20 19 19 21 20 19 17 17 17 15 14 13 12 11 11 12 12 12 13 14 13 12 12 13 15 16 18 19 20 22 23 24 23 23 24 23 24 24 25 26 26 28
24 24 22 23 21 21 19 18 17 17 16 14 14 13 13 12 13 13 12 13 14 15 16 16 16 16 16 18 19 20 21 22 23 23 24 25 26 27 28 28 28 29 30
25 26 26 27 27 22 19 18 17 16 16 16 15 15 14 13 13 12 12 13 13 14 15 16 16 17 18 19 20 21 22 24 25 24 25 26 26 28 29 29 30 31 31
25 26 24 25 26 24 20 18 18 18 17 17 16 16 16 15 14 14 14 13 12 11 10 10 11 13 14 15 17 18 20 21 21 22 22 23 24 26 28 28 29 31 31
25 26 27 26 26 24 21 20 20 19 18 19 18 18 18 17 17 15 14 13 12 12 13 15 18 21 21 24 24 24 23 23 24 24 24 26 25 27 29 30 32 33 34
27 25 27 28 25 25 22 21 20 20 19 19 20 20 20 20 20 19 18 17 16 16 16 18 21 23 24 25 27 27 28 29 28 26 27 28 29 29 29 29 31 33 35
27 26 28 30 27 25 25 23 21 20 21 21 21 22 23 23 22 21 21 20 20 19 19 20 24 24 24 28 27 25 25 26 28 26 27 29 30 30 32 32 32 34 34
28 28 28 30 27 29 27 24 24 21 20 20 22 24 24 25 25 23 24 24 23 22 21 21 24 26 27 23 16 14 15 18 21 22 26 25 27 28 29 30 32 33 32
32 29 29 32 33 29 32 30 28 25 23 22 22 26 27 28 28 28 27 27 28 24 23 23 26 27 27 24 17 16 18 20 22 22 26 28 31 32 32 33 34 33 32
34 32 32 34 36 31 29 34 30 28 27 26 25 26 30 31 30 30 30 30 29 27 25 25 27 29 29 24 21 21 22 23 26 28 30 33 37 38 37 37 38 37 35
35 35 33 34 36 37 39 36 33 30 30 28 28 29 29 32 31 30 31 31 30 29 27 26 29 31 30 27 26 26 27 28 30 32 36 37 39 40 39 38 37 38 37
36 35 35 34 33 36 37 38 36 34 34 33 29 29 30 30 30 29 30 30 30 28 28 30 30 31 31 30 30 30 31 32 33 37 36 39 39 39 35 32 31 33 34
38 37 35 34 34 35 37 36 35 36 37 35 31 29 30 31 31 30 31 31 30 30 29 30 31 32 32 33 32 33 33 35 37 36 39 40 38 33 31 33 34 35 37
41 40 36 35 35 37 36 35 35 37 38 37 33 32 32 33 33 31 31 31 32 31 31 31 32 34 36 34 32 33 35 37 39 38 40 39 36 36 36 37 39 40 42
40 43 43 39 38 38 37 35 35 38 39 37 35 34 33 34 35 32 33 32 33 32 31 32 32 36 36 32 34 35 37 40 39 40 40 40 38 39 40 41 43 45 47
41 41 44 43 43 43 40 36 36 37 39 36 36 35 34 34 36 35 34 34 32 32 32 33 32 33 32 34 36 38 41 42 41 42 43 42 41 42 44 46 48 51 52
43 43 40 42 47 47 43 41 38 39 39 37 35 35 34 33 35 37 35 34 33 34 34 33 33 35 35 38 40 41 43 44 44 44 44 44 45 46 48 51 53 55 56
44 46 41 39 45 49 45 42 41 40 40 37 35 35 35 34 37 38 36 36 36 35 36 36 35 37 39 41 43 46 48 47 47 47 46 47 49 50 53 56 57 59 61
46 47 44 41 44 44 46 44 41 41 39 35 35 35 36 35 36 39 39 38 38 38 39 39 39 41 42 44 46 47 48 48 47 48 48 50 53 55 58 60 62 64 67
43 46 44 41 46 42 43 45 41 40 36 36 36 35 37 36 35 38 40 40 41 42 42 43 43 45 46 48 49 50 52 51 49 47 47 51 55 58 61 63 66 69 70
47 45 43 42 45 43 43 43 41 38 35 35 37 37 37 37 37 37 40 42 43 44 45 46 47 48 49 50 51 52 51 51 52 51 52 55 58 60 61 65 69 68 71
49 47 43 43 44 43 42 41 42 40 37 37 35 38 40 39 38 39 40 41 43 45 46 48 49 50 50 52 54 52 52 51 53 56 59 60 62 62 65 65 68 71 72
Wind_Direction
254 252 254 251 255 255 257 259 264 267 269 271 265 257 253 251 251 252 251 257 264 265 268 268 266 270 273 275 275 276 274 272 272 271 271 273 274 276 278 276 278 281 282
257 253 254 249 249 255 261 263 263 270 273 272 265 258 252 250 245 245 253 257 262 268 264 263 263 266 272 274 272 274 273 272 270 270 271 273 276 278 278 279 280 282 283
252 255 254 255 257 255 259 264 267 270 276 276 270 261 259 255 247 248 253 263 262 259 259 261 265 267 272 274 273 273 274 274 274 274 276 279 280 279 281 282 283 285 284
251 248 250 255 257 257 255 258 263 267 270 269 268 265 259 254 250 251 257 257 257 257 255 257 261 265 267 272 274 276 277 278 278 278 280 281 282 282 281 282 283 284 283
256 262 257 251 252 254 255 256 262 265 265 263 262 260 255 252 256 258 260 259 255 255 257 261 265 268 272 273 275 277 279 280 281 281 281 283 283 284 284 286 287 287 285
265 265 268 268 252 248 252 255 259 260 258 256 258 261 257 256 257 260 263 260 258 259 262 267 271 273 275 279 280 280 281 282 282 283 283 282 283 284 284 284 285 285 286
258 265 263 268 263 256 248 248 251 253 252 251 252 255 259 256 251 253 257 258 258 260 263 268 274 278 282 283 284 285 285 284 282 283 284 284 284 284 284 284 283 283 282
261 264 263 265 265 266 262 257 250 248 248 245 245 251 256 260 258 253 254 254 254 257 261 268 280 286 290 288 285 284 285 284 284 285 285 284 285 285 284 284 284 283 283
260 265 266 259 264 264 262 262 259 255 252 247 243 245 249 253 253 252 248 242 236 249 265 275 282 287 290 291 288 284 282 281 283 284 285 286 287 288 287 286 286 285 283
255 258 260 253 252 259 260 259 263 266 257 252 249 247 248 251 250 249 245 245 250 256 267 278 286 292 293 298 291 285 280 278 279 283 285 288 290 290 293 293 288 283 279
250 254 251 249 247 247 252 257 262 263 265 261 253 249 247 250 251 253 253 250 251 257 270 283 292 295 298 304 296 286 282 281 277 279 283 288 290 291 293 292 288 285 283
247 249 252 249 248 253 252 252 252 256 260 263 261 256 251 249 252 256 256 257 256 262 271 281 292 293 304 300 303 301 297 291 282 282 284 287 289 288 286 285 285 283 286
249 246 246 243 244 242 248 251 253 258 264 265 263 258 257 256 255 256 259 261 261 264 269 279 289 293 301 292 285 294 295 292 288 286 287 290 290 291 293 293 286 285 282
253 253 248 245 243 244 248 251 251 259 263 268 269 266 258 256 256 257 258 259 263 263 268 278 287 290 295 286 278 284 288 290 292 292 293 296 296 295 292 288 289 287 282
251 252 251 248 250 247 246 253 256 258 261 262 267 267 263 258 257 259 259 262 262 264 269 277 284 286 290 288 277 281 287 291 294 296 298 299 298 297 296 290 287 286 283
250 250 250 251 248 254 259 259 261 262 261 260 261 268 268 264 261 261 261 261 261 261 267 276 278 284 288 287 277 279 285 289 292 296 296 297 297 296 296 294 291 287 284
247 247 246 250 252 251 252 256 259 262 263 265 264 267 268 266 263 260 260 259 260 260 265 271 277 281 286 285 279 278 284 290 293 294 297 297 295 291 289 290 290 289 288
243 248 249 248 248 252 256 257 259 259 264 267 266 265 265 264 261 258 258 260 260 261 263 268 276 281 283 282 280 281 286 290 292 294 297 296 292 287 286 286 287 286 285
243 242 244 249 252 251 254 258 260 259 262 267 264 260 264 262 260 257 257 259 262 264 267 273 279 282 280 278 280 286 290 291 291 293 295 293 288 284 284 285 285 284 283
243 245 244 247 250 253 254 256 258 262 262 265 263 257 259 262 259 255 256 260 262 265 271 275 281 285 284 283 286 289 293 292 292 292 294 292 287 285 285 285 284 284 283
244 246 245 243 248 250 252 254 256 260 263 263 265 257 259 264 260 254 256 262 264 268 272 278 282 285 287 289 291 293 296 294 292 292 293 290 287 286 286 286 287 287 287
244 247 247 242 245 248 250 253 256 258 264 263 264 256 259 262 259 254 257 261 266 270 273 278 283 285 288 290 293 296 297 295 293 293 292 290 289 289 290 290 290 291 291
242 244 248 242 244 247 248 251 255 259 261 260 259 256 257 260 261 258 259 263 269 272 275 280 285 287 288 289 292 293 293 291 291 292 290 290 291 292 293 293 294 294 294
243 242 247 245 246 249 248 249 252 256 258 257 257 260 259 260 263 261 261 266 271 274 277 280 283 286 287 288 290 293 293 291 290 286 285 287 288 290 291 294 296 295 294
238 243 243 242 246 248 252 250 253 257 260 260 256 259 261 261 262 265 266 268 272 276 279 281 283 284 286 289 291 292 290 290 291 290 289 289 291 292 292 292 291 291 291
236 240 241 239 243 245 249 253 254 257 261 261 260 260 260 262 264 266 268 271 274 276 279 281 283 284 287 289 291 290 291 292 292 292 292 292 293 292 292 292 292 293 294
Height
5857 5858 5858 5859 5860 5860 5860 5859 5858 5858 5857 5857 5857 5857 5857 5856 5855 5855 5854 5853 5854 5853 5853 5852 5852 5852 5852 5853 5853 5853 5853 5853 5852 5852 5852 5853 5853 5853 5853 5853 5853 5852 5851
5854 5854 5854 5855 5855 5857 5857 5857 5856 5856 5855 5854 5854 5854 5853 5854 5853 5853 5852 5851 5851 5850 5851 5850 5849 5849 5849 5849 5850 5849 5850 5850 5849 5849 5849 5850 5850 5850 5849 5849 5848 5848 5847
5850 5850 5851 5851 5852 5852 5853 5854 5853 5852 5852 5851 5850 5850 5850 5851 5851 5850 5849 5848 5848 5848 5848 5848 5847 5847 5846 5846 5846 5846 5847 5847 5847 5847 5847 5847 5845 5844 5845 5844 5844 5843 5842
5847 5846 5847 5848 5849 5849 5849 5849 5850 5850 5849 5849 5848 5847 5847 5848 5848 5847 5847 5847 5846 5846 5845 5845 5845 5844 5843 5843 5843 5843 5843 5844 5843 5842 5843 5842 5841 5841 5839 5839 5838 5838 5837
5844 5844 5844 5844 5845 5845 5845 5845 5846 5846 5846 5846 5845 5845 5845 5845 5845 5844 5844 5844 5844 5844 5843 5842 5841 5841 5840 5840 5840 5839 5840 5840 5839 5838 5837 5837 5836 5836 5834 5833 5833 5832 5832
5840 5841 5840 5841 5841 5842 5841 5842 5842 5843 5843 5842 5843 5842 5842 5843 5842 5842 5841 5841 5840 5840 5840 5840 5839 5839 5837 5838 5837 5837 5836 5835 5835 5833 5832 5831 5830 5830 5829 5828 5827 5826 5826
5837 5837 5837 5837 5837 5837 5837 5837 5838 5839 5839 5839 5839 5840 5839 5839 5839 5839 5838 5837 5836 5837 5837 5837 5837 5836 5835 5834 5833 5832 5832 5831 5829 5828 5827 5826 5824 5823 5824 5822 5821 5820 5820
5832 5833 5833 5833 5833 5834 5834 5834 5834 5834 5835 5835 5836 5836 5836 5836 5836 5835 5835 5834 5834 5834 5834 5834 5834 5833 5832 5830 5829 5828 5827 5826 5825 5823 5822 5820 5819 5818 5818 5816 5815 5814 5813
5828 5829 5829 5828 5829 5829 5831 5831 5831 5831 5831 5832 5832 5832 5832 5833 5833 5832 5832 5831 5831 5831 5831 5830 5830 5829 5827 5827 5825 5824 5822 5820 5820 5818 5816 5816 5813 5812 5812 5810 5809 5807 5806
5824 5824 5824 5824 5824 5825 5826 5826 5827 5827 5827 5828 5828 5828 5828 5828 5829 5829 5828 5828 5828 5828 5827 5826 5825 5825 5822 5821 5819 5817 5816 5815 5813 5812 5811 5810 5808 5807 5806 5804 5802 5801 5798
5819 5820 5819 5819 5819 5820 5822 5822 5822 5822 5822 5823 5823 5824 5824 5824 5824 5824 5825 5824 5824 5823 5823 5822 5820 5819 5817 5815 5812 5809 5808 5808 5807 5806 5805 5803 5802 5801 5799 5797 5796 5792 5790
5813 5815 5815 5815 5816 5816 5817 5818 5817 5817 5817 5818 5819 5819 5819 5819 5819 5820 5820 5820 5819 5818 5818 5817 5815 5814 5811 5809 5807 5805 5803 5801 5801 5798 5799 5797 5796 5795 5792 5790 5788 5785 5786
5808 5809 5810 5810 5811 5811 5811 5812 5813 5813 5813 5813 5813 5814 5814 5814 5814 5815 5815 5814 5814 5813 5813 5811 5810 5808 5806 5804 5802 5800 5799 5797 5796 5793 5793 5791 5790 5787 5786 5784 5780 5780 5777
5803 5805 5804 5804 5805 5807 5807 5807 5808 5809 5809 5809 5808 5808 5808 5808 5808 5809 5808 5808 5808 5807 5807 5805 5804 5802 5800 5798 5797 5795 5794 5792 5791 5788 5787 5784 5782 5780 5778 5775 5774 5771 5770
5797 5798 5799 5799 5800 5801 5801 5803 5804 5804 5803 5804 5803 5802 5802 5802 5802 5802 5802 5802 5801 5801 5801 5799 5797 5797 5794 5793 5791 5789 5788 5786 5784 5781 5779 5776 5773 5770 5768 5766 5764 5762 5761
5790 5791 5792 5793 5793 5795 5796 5797 5798 5798 5798 5798 5798 5798 5797 5797 5797 5797 5796 5795 5795 5794 5793 5792 5792 5790 5788 5787 5785 5782 5781 5779 5777 5774 5771 5768 5765 5762 5759 5757 5755 5754 5752
5782 5783 5785 5785 5787 5788 5788 5789 5791 5791 5791 5792 5792 5792 5792 5791 5791 5790 5790 5788 5788 5787 5786 5785 5784 5783 5781 5780 5778 5775 5773 5771 5769 5765 5763 5760 5757 5754 5752 5750 5749 5747 5744
5774 5777 5778 5778 5779 5780 5781 5783 5784 5783 5784 5785 5786 5786 5786 5785 5784 5784 5783 5782 5781 5780 5779 5778 5777 5776 5774 5772 5771 5768 5766 5763 5760 5757 5754 5751 5748 5747 5744 5742 5740 5738 5736
5765 5768 5770 5771 5772 5773 5774 5776 5777 5777 5777 5778 5779 5779 5779 5778 5777 5777 5777 5776 5775 5774 5773 5771 5770 5768 5766 5764 5763 5760 5757 5755 5752 5749 5745 5743 5740 5738 5736 5733 5731 5729 5726
5758 5759 5762 5764 5764 5765 5767 5768 5769 5770 5771 5772 5773 5772 5772 5771 5770 5771 5770 5769 5768 5767 5766 5765 5763 5761 5758 5756 5754 5751 5749 5746 5743 5740 5736 5734 5731 5728 5725 5723 5720 5717 5714
5749 5751 5753 5756 5757 5757 5759 5760 5762 5763 5763 5764 5765 5765 5765 5764 5764 5764 5763 5762 5761 5760 5759 5757 5756 5754 5751 5748 5745 5743 5740 5737 5733 5730 5727 5724 5721 5717 5714 5711 5707 5704 5700
5740 5741 5744 5747 5748 5748 5750 5752 5754 5755 5755 5757 5757 5757 5758 5757 5756 5756 5756 5755 5754 5753 5751 5750 5748 5746 5744 5740 5737 5732 5730 5728 5723 5720 5716 5712 5709 5705 5701 5697 5693 5689 5685
5730 5733 5735 5738 5739 5740 5741 5743 5745 5747 5748 5749 5749 5749 5750 5750 5749 5749 5749 5748 5747 5745 5743 5741 5739 5737 5735 5732 5728 5725 5722 5718 5714 5710 5705 5701 5696 5692 5687 5682 5677 5671 5667
5720 5723 5727 5730 5730 5733 5734 5734 5737 5738 5740 5741 5741 5742 5742 5743 5742 5742 5741 5740 5739 5737 5735 5733 5730 5727 5724 5722 5719 5715 5711 5707 5705 5704 5699 5693 5688 5682 5675 5669 5662 5655 5650
5708 5713 5717 5720 5722 5724 5727 5728 5729 5731 5733 5733 5734 5734 5735 5735 5734 5734 5733 5731 5729 5728 5726 5723 5721 5718 5714 5711 5707 5704 5700 5696 5692 5688 5687 5682 5675 5669 5663 5657 5650 5642 5636
5696 5701 5706 5710 5713 5716 5719 5721 5722 5723 5724 5725 5726 5726 5727 5726 5726 5725 5723 5721 5720 5718 5716 5714 5711 5707 5704 5700 5696 5692 5688 5685 5680 5674 5670 5666 5661 5655 5649 5641 5634 5626 5617